TimeEST,TemperatureF,Dew PointF,Humidity,Sea Level PressureIn,VisibilityMPH,Wind Direction,Wind SpeedMPH,Gust SpeedMPH,PrecipitationIn,Events,Conditions,WindDirDegrees,DateUTC
12:01 AM,35.6,28.4,75,30.07,1.8,WSW,17.3,27.6,0.00,Snow,Light Snow,240,2012-12-12 05:01:00
12:09 AM,35.6,28.4,75,30.07,3.0,WSW,13.8,23.0,0.00,Snow,Light Snow,240,2012-12-12 05:09:00
12:26 AM,35.6,28.4,75,30.07,6.0,WSW,16.1,25.3,0.00,Snow,Light Snow,240,2012-12-12 05:26:00
12:55 AM,37.0,28.0,70,30.09,10.0,WSW,16.1,23.0,0.00,,Overcast,240,2012-12-12 05:55:00
1:55 AM,37.9,26.1,62,30.11,10.0,West,18.4,31.1,N/A,,Overcast,260,2012-12-12 06:55:00
2:55 AM,37.9,26.1,62,30.13,10.0,WSW,13.8,27.6,0.00,,Overcast,250,2012-12-12 07:55:00
3:48 AM,37.4,26.6,65,30.13,10.0,West,16.1,25.3,N/A,,Overcast,280,2012-12-12 08:48:00
3:55 AM,37.9,27.0,65,30.16,10.0,West,13.8,25.3,N/A,,Overcast,270,2012-12-12 08:55:00
4:33 AM,37.4,26.6,65,30.14,10.0,West,11.5,18.4,N/A,,Overcast,270,2012-12-12 09:33:00
4:44 AM,37.4,26.6,65,30.14,10.0,West,11.5,-,N/A,,Overcast,280,2012-12-12 09:44:00
4:55 AM,37.0,26.1,65,30.17,10.0,West,15.0,21.9,N/A,,Overcast,280,2012-12-12 09:55:00
5:18 AM,37.4,26.6,65,30.15,10.0,West,9.2,-,N/A,,Overcast,270,2012-12-12 10:18:00
5:34 AM,37.4,26.6,65,30.16,10.0,West,10.4,18.4,N/A,,Overcast,280,2012-12-12 10:34:00
5:49 AM,37.4,26.6,65,30.16,10.0,West,10.4,-,N/A,,Overcast,280,2012-12-12 10:49:00
5:55 AM,37.0,26.1,65,30.19,10.0,West,8.1,-,N/A,,Overcast,270,2012-12-12 10:55:00
6:55 AM,37.0,25.0,62,30.20,10.0,West,5.8,-,N/A,,Overcast,270,2012-12-12 11:55:00
7:55 AM,36.0,26.1,67,30.23,10.0,WSW,4.6,-,N/A,,Overcast,250,2012-12-12 12:55:00
8:55 AM,37.0,27.0,67,30.25,10.0,WSW,8.1,-,N/A,,Overcast,240,2012-12-12 13:55:00
9:55 AM,37.0,28.0,70,30.26,10.0,SW,9.2,-,N/A,,Mostly Cloudy,230,2012-12-12 14:55:00
10:55 AM,41.0,30.0,65,30.27,10.0,SW,13.8,19.6,N/A,,Scattered Clouds,220,2012-12-12 15:55:00
11:55 AM,42.1,28.9,60,30.27,10.0,SW,17.3,-,N/A,,Scattered Clouds,220,2012-12-12 16:55:00
12:55 PM,45.0,30.9,58,30.26,10.0,SSW,18.4,31.1,N/A,,Partly Cloudy,200,2012-12-12 17:55:00
1:55 PM,45.0,30.0,56,30.26,10.0,SSW,20.7,27.6,N/A,,Partly Cloudy,210,2012-12-12 18:55:00
2:55 PM,45.0,28.0,52,30.26,10.0,SSW,18.4,28.8,N/A,,Partly Cloudy,210,2012-12-12 19:55:00
3:55 PM,43.0,28.9,58,30.26,10.0,South,17.3,25.3,N/A,,Clear,190,2012-12-12 20:55:00
4:55 PM,42.1,28.9,60,30.28,10.0,South,13.8,21.9,N/A,,Clear,190,2012-12-12 21:55:00
5:55 PM,41.0,28.0,60,30.28,10.0,South,12.7,-,N/A,,Clear,190,2012-12-12 22:55:00
6:55 PM,39.0,28.0,65,30.28,10.0,SSE,9.2,-,N/A,,Clear,150,2012-12-12 23:55:00
7:55 PM,37.9,24.1,57,30.28,10.0,SSE,9.2,-,N/A,,Clear,160,2012-12-13 00:55:00
8:55 PM,37.0,25.0,62,30.29,10.0,SSE,9.2,-,N/A,,Clear,160,2012-12-13 01:55:00
9:55 PM,37.0,26.1,65,30.28,10.0,South,10.4,-,N/A,,Clear,170,2012-12-13 02:55:00
10:55 PM,37.9,27.0,65,30.28,10.0,South,11.5,-,N/A,,Clear,180,2012-12-13 03:55:00
11:55 PM,39.0,30.0,70,30.28,10.0,South,13.8,-,N/A,,Clear,190,2012-12-13 04:55:00